Time,TemperatureF,DewpointF,PressureIn,WindDirection,WindDirectionDegrees,WindSpeedMPH,WindSpeedGustMPH,Humidity,HourlyPrecipIn,Conditions,Clouds,dailyrainin,SoftwareType,DateUTC
2013-02-25 00:01:00,74.5,67.6,29.95,NE,45,4.0,0.0,79,0.00,,---,0.00,VWS V14.01,2013-02-25 04:01:00,
2013-02-25 00:06:00,74.5,67.6,29.95,SE,135,4.7,0.0,79,0.00,,---,0.00,VWS V14.01,2013-02-25 04:06:00,
2013-02-25 00:11:00,74.5,67.6,29.94,ESE,112,2.5,0.0,79,0.00,,---,0.00,VWS V14.01,2013-02-25 04:11:00,
2013-02-25 00:17:00,74.3,67.4,29.94,South,180,5.6,0.0,79,0.00,,---,0.00,VWS V14.01,2013-02-25 04:17:00,
2013-02-25 00:22:00,74.3,67.7,29.94,NNE,22,4.7,0.0,80,0.00,,---,0.00,VWS V14.01,2013-02-25 04:22:00,
2013-02-25 00:27:00,74.3,67.7,29.94,ESE,112,3.8,0.0,80,0.00,,---,0.00,VWS V14.01,2013-02-25 04:27:00,
2013-02-25 00:32:00,74.2,67.6,29.94,SSE,158,3.1,0.0,80,0.00,,---,0.00,VWS V14.01,2013-02-25 04:32:00,
2013-02-25 00:37:00,74.3,67.4,29.94,SSW,202,3.8,0.0,79,0.00,,---,0.00,VWS V14.01,2013-02-25 04:37:00,
2013-02-25 00:42:00,74.3,67.4,29.94,South,180,3.4,0.0,79,0.00,,---,0.00,VWS V14.01,2013-02-25 04:42:00,
2013-02-25 00:47:00,74.5,67.6,29.93,SE,135,4.5,0.0,79,0.00,,---,0.00,VWS V14.01,2013-02-25 04:47:00,
2013-02-25 00:52:00,74.3,67.4,29.93,ESE,112,3.6,0.0,79,0.00,,---,0.00,VWS V14.01,2013-02-25 04:52:00,
2013-02-25 00:57:00,74.2,67.3,29.93,NNE,22,4.7,0.0,79,0.00,,---,0.00,VWS V14.01,2013-02-25 04:57:00,
2013-02-25 01:00:00,74.2,67.3,29.93,ENE,68,3.8,0.0,79,0.00,,---,0.00,VWS V14.01,2013-02-25 05:00:00,
2013-02-25 01:01:00,74.2,67.6,29.93,East,90,3.4,0.0,80,0.00,,---,0.00,VWS V14.01,2013-02-25 05:01:00,
2013-02-25 01:06:00,74.3,67.7,29.93,ESE,112,1.8,0.0,80,0.00,,---,0.00,VWS V14.01,2013-02-25 05:06:00,
2013-02-25 01:11:00,74.3,68.1,29.93,SE,135,2.9,0.0,81,0.00,,---,0.00,VWS V14.01,2013-02-25 05:11:00,
2013-02-25 01:16:00,74.2,67.6,29.93,SSE,158,4.0,0.0,80,0.00,,---,0.00,VWS V14.01,2013-02-25 05:16:00,
2013-02-25 01:21:00,74.2,67.3,29.93,ENE,68,2.2,0.0,79,0.00,,---,0.00,VWS V14.01,2013-02-25 05:21:00,
2013-02-25 01:27:00,74.2,67.3,29.93,ENE,68,2.9,0.0,79,0.00,,---,0.00,VWS V14.01,2013-02-25 05:27:00,
2013-02-25 01:32:00,74.2,67.3,29.92,SSE,158,2.5,0.0,79,0.00,,---,0.00,VWS V14.01,2013-02-25 05:32:00,
2013-02-25 01:37:00,74.2,67.6,29.92,NNE,22,3.6,0.0,80,0.00,,---,0.00,VWS V14.01,2013-02-25 05:37:00,
2013-02-25 01:42:00,74.2,67.6,29.92,SSW,202,4.5,0.0,80,0.00,,---,0.00,VWS V14.01,2013-02-25 05:42:00,
2013-02-25 01:47:00,74.2,67.6,29.92,East,90,4.5,0.0,80,0.00,,---,0.00,VWS V14.01,2013-02-25 05:47:00,
2013-02-25 01:52:00,74.3,67.4,29.91,SE,135,2.5,0.0,79,0.00,,---,0.00,VWS V14.01,2013-02-25 05:52:00,
2013-02-25 01:57:00,74.3,67.7,29.91,ESE,112,3.8,0.0,80,0.00,,---,0.00,VWS V14.01,2013-02-25 05:57:00,
2013-02-25 02:02:00,74.3,67.7,29.91,NE,45,4.0,0.0,80,0.00,,---,0.00,VWS V14.01,2013-02-25 06:02:00,
2013-02-25 02:07:00,74.2,67.3,29.91,ENE,68,3.4,0.0,79,0.00,,---,0.00,VWS V14.01,2013-02-25 06:07:00,
2013-02-25 02:12:00,74.2,67.3,29.91,ENE,68,4.0,0.0,79,0.00,,---,0.00,VWS V14.01,2013-02-25 06:12:00,
2013-02-25 02:17:00,74.2,67.6,29.91,NNW,338,3.1,0.0,80,0.00,,---,0.00,VWS V14.01,2013-02-25 06:17:00,
2013-02-25 02:22:00,74.2,67.6,29.91,ENE,68,3.4,0.0,80,0.00,,---,0.00,VWS V14.01,2013-02-25 06:22:00,
2013-02-25 02:27:00,74.0,67.4,29.91,South,180,2.5,0.0,80,0.00,,---,0.00,VWS V14.01,2013-02-25 06:27:00,
2013-02-25 02:32:00,73.8,67.2,29.91,NE,45,4.0,0.0,80,0.00,,---,0.00,VWS V14.01,2013-02-25 06:32:00,
2013-02-25 02:37:00,73.8,67.6,29.91,SSW,202,2.0,0.0,81,0.00,,---,0.00,VWS V14.01,2013-02-25 06:37:00,
2013-02-25 02:42:00,74.0,67.8,29.91,SSE,158,3.4,0.0,81,0.00,,---,0.00,VWS V14.01,2013-02-25 06:42:00,
2013-02-25 02:47:00,74.0,67.8,29.90,ENE,68,2.9,0.0,81,0.00,,---,0.00,VWS V14.01,2013-02-25 06:47:00,
2013-02-25 02:52:00,74.0,67.8,29.90,SE,135,3.8,0.0,81,0.00,,---,0.00,VWS V14.01,2013-02-25 06:52:00,
2013-02-25 02:57:00,74.2,68.0,29.90,SSE,158,3.4,0.0,81,0.00,,---,0.00,VWS V14.01,2013-02-25 06:57:00,
2013-02-25 03:02:00,74.2,68.0,29.90,NNW,338,2.9,0.0,81,0.00,,---,0.00,VWS V14.01,2013-02-25 07:02:00,
2013-02-25 03:08:00,74.2,68.0,29.90,East,90,2.2,0.0,81,0.00,,---,0.00,VWS V14.01,2013-02-25 07:08:00,
2013-02-25 03:13:00,74.3,68.1,29.90,SE,135,3.4,0.0,81,0.00,,---,0.00,VWS V14.01,2013-02-25 07:13:00,
2013-02-25 03:18:00,74.3,67.7,29.90,NE,45,2.0,0.0,80,0.00,,---,0.00,VWS V14.01,2013-02-25 07:18:00,
2013-02-25 03:23:00,74.2,67.3,29.90,NNE,22,4.0,0.0,79,0.00,,---,0.00,VWS V14.01,2013-02-25 07:23:00,
2013-02-25 03:28:00,74.2,67.3,29.90,East,90,3.1,0.0,79,0.00,,---,0.00,VWS V14.01,2013-02-25 07:28:00,
2013-02-25 03:33:00,74.0,67.4,29.90,East,90,2.7,0.0,80,0.00,,---,0.00,VWS V14.01,2013-02-25 07:33:00,
2013-02-25 03:38:00,74.0,67.8,29.90,WSW,248,4.5,0.0,81,0.00,,---,0.00,VWS V14.01,2013-02-25 07:38:00,
2013-02-25 03:43:00,74.0,67.4,29.90,East,90,1.8,0.0,80,0.00,,---,0.00,VWS V14.01,2013-02-25 07:43:00,
2013-02-25 03:48:00,74.0,67.8,29.90,SE,135,3.4,0.0,81,0.00,,---,0.00,VWS V14.01,2013-02-25 07:48:00,
2013-02-25 03:53:00,73.8,67.6,29.90,SSW,202,2.5,0.0,81,0.00,,---,0.00,VWS V14.01,2013-02-25 07:53:00,
2013-02-25 03:58:00,73.8,67.6,29.90,East,90,2.9,0.0,81,0.00,,---,0.00,VWS V14.01,2013-02-25 07:58:00,
2013-02-25 04:03:00,73.8,67.6,29.90,East,90,1.8,0.0,81,0.00,,---,0.00,VWS V14.01,2013-02-25 08:03:00,
2013-02-25 04:08:00,73.8,67.6,29.90,SSE,158,4.0,0.0,81,0.00,,---,0.00,VWS V14.01,2013-02-25 08:08:00,
2013-02-25 04:13:00,73.6,67.4,29.90,ESE,112,3.4,0.0,81,0.00,,---,0.00,VWS V14.01,2013-02-25 08:13:00,
2013-02-25 04:18:00,73.6,67.4,29.90,SSW,202,3.1,0.0,81,0.00,,---,0.00,VWS V14.01,2013-02-25 08:18:00,
2013-02-25 04:23:00,73.8,67.6,29.90,NW,315,2.2,0.0,81,0.00,,---,0.00,VWS V14.01,2013-02-25 08:23:00,
2013-02-25 04:28:00,74.0,67.8,29.89,ENE,68,1.6,0.0,81,0.00,,---,0.00,VWS V14.01,2013-02-25 08:28:00,
2013-02-25 04:33:00,74.2,68.0,29.90,SW,225,4.0,0.0,81,0.00,,---,0.00,VWS V14.01,2013-02-25 08:33:00,
2013-02-25 04:38:00,74.0,67.8,29.90,ESE,112,3.4,0.0,81,0.00,,---,0.00,VWS V14.01,2013-02-25 08:38:00,
2013-02-25 04:43:00,73.8,67.2,29.90,SSE,158,2.9,0.0,80,0.00,,---,0.00,VWS V14.01,2013-02-25 08:43:00,
2013-02-25 04:48:00,73.8,67.6,29.90,NE,45,1.1,0.0,81,0.00,,---,0.00,VWS V14.01,2013-02-25 08:48:00,
2013-02-25 04:53:00,73.8,67.6,29.90,SE,135,2.7,0.0,81,0.00,,---,0.00,VWS V14.01,2013-02-25 08:53:00,
2013-02-25 04:58:00,73.8,67.6,29.90,ENE,68,2.5,0.0,81,0.00,,---,0.00,VWS V14.01,2013-02-25 08:58:00,
2013-02-25 05:03:00,73.8,67.6,29.90,SW,225,1.6,0.0,81,0.00,,---,0.00,VWS V14.01,2013-02-25 09:03:00,
2013-02-25 05:08:00,73.8,67.6,29.90,East,90,2.0,0.0,81,0.00,,---,0.00,VWS V14.01,2013-02-25 09:08:00,
2013-02-25 05:13:00,73.8,68.0,29.90,NNW,338,2.5,0.0,82,0.00,,---,0.00,VWS V14.01,2013-02-25 09:13:00,
2013-02-25 05:18:00,73.8,67.6,29.90,ESE,112,1.6,0.0,81,0.00,,---,0.00,VWS V14.01,2013-02-25 09:18:00,
2013-02-25 05:23:00,73.8,67.6,29.90,SSE,158,2.9,0.0,81,0.00,,---,0.00,VWS V14.01,2013-02-25 09:23:00,
2013-02-25 05:29:00,73.6,67.4,29.90,SE,135,1.8,0.0,81,0.00,,---,0.00,VWS V14.01,2013-02-25 09:29:00,
2013-02-25 05:34:00,73.6,67.4,29.90,South,180,2.5,0.0,81,0.00,,---,0.00,VWS V14.01,2013-02-25 09:34:00,
2013-02-25 05:39:00,73.8,67.6,29.91,ENE,68,2.5,0.0,81,0.00,,---,0.00,VWS V14.01,2013-02-25 09:39:00,
2013-02-25 05:44:00,74.0,67.8,29.91,SE,135,2.9,0.0,81,0.00,,---,0.00,VWS V14.01,2013-02-25 09:44:00,
2013-02-25 05:49:00,74.2,68.0,29.91,SSE,158,2.5,0.0,81,0.00,,---,0.00,VWS V14.01,2013-02-25 09:49:00,
2013-02-25 05:54:00,74.0,67.8,29.91,South,180,4.5,0.0,81,0.00,,---,0.00,VWS V14.01,2013-02-25 09:54:00,
2013-02-25 05:59:00,73.8,67.6,29.91,SE,135,2.0,0.0,81,0.00,,---,0.00,VWS V14.01,2013-02-25 09:59:00,
2013-02-25 06:04:00,73.8,67.6,29.91,NE,45,2.5,0.0,81,0.00,,---,0.00,VWS V14.01,2013-02-25 10:04:00,
2013-02-25 06:09:00,73.8,67.6,29.91,SSW,202,2.9,0.0,81,0.00,,---,0.00,VWS V14.01,2013-02-25 10:09:00,
2013-02-25 06:14:00,74.0,67.8,29.91,NE,45,4.7,0.0,81,0.00,,---,0.00,VWS V14.01,2013-02-25 10:14:00,
2013-02-25 06:19:00,74.0,67.8,29.91,NNE,22,2.7,0.0,81,0.00,,---,0.00,VWS V14.01,2013-02-25 10:19:00,
2013-02-25 06:24:00,74.0,67.4,29.92,SE,135,4.0,0.0,80,0.00,,---,0.00,VWS V14.01,2013-02-25 10:24:00,
2013-02-25 06:29:00,73.8,67.2,29.92,NNE,22,4.7,0.0,80,0.00,,---,0.00,VWS V14.01,2013-02-25 10:29:00,
2013-02-25 06:34:00,74.0,67.8,29.92,North,0,3.4,0.0,81,0.00,,---,0.00,VWS V14.01,2013-02-25 10:34:00,
2013-02-25 06:39:00,74.0,67.8,29.92,SE,135,3.8,0.0,81,0.00,,---,0.00,VWS V14.01,2013-02-25 10:39:00,
2013-02-25 06:44:00,74.0,67.4,29.93,South,180,4.9,0.0,80,0.00,,---,0.00,VWS V14.01,2013-02-25 10:44:00,
2013-02-25 06:49:00,74.2,67.6,29.93,ENE,68,2.0,0.0,80,0.00,,---,0.00,VWS V14.01,2013-02-25 10:49:00,
2013-02-25 06:54:00,74.9,68.3,29.93,SE,135,3.6,0.0,80,0.00,,---,0.00,VWS V14.01,2013-02-25 10:54:00,
2013-02-25 06:59:00,75.4,68.4,29.93,NE,45,2.5,0.0,79,0.00,,---,0.00,VWS V14.01,2013-02-25 10:59:00,
2013-02-25 07:04:00,76.3,68.9,29.94,SE,135,2.0,0.0,78,0.00,,---,0.00,VWS V14.01,2013-02-25 11:04:00,
2013-02-25 07:09:00,76.7,68.6,29.94,South,180,3.4,0.0,76,0.00,,---,0.00,VWS V14.01,2013-02-25 11:09:00,
2013-02-25 07:14:00,77.2,68.7,29.94,SE,135,2.5,0.0,75,0.00,,---,0.00,VWS V14.01,2013-02-25 11:14:00,
2013-02-25 07:19:00,77.8,69.2,29.94,NNE,22,3.1,0.0,75,0.00,,---,0.00,VWS V14.01,2013-02-25 11:19:00,
2013-02-25 07:25:00,78.5,68.7,29.94,NE,45,3.8,0.0,72,0.00,,---,0.00,VWS V14.01,2013-02-25 11:25:00,
2013-02-25 07:30:00,78.8,68.6,29.94,SE,135,2.5,0.0,71,0.00,,---,0.00,VWS V14.01,2013-02-25 11:30:00,
2013-02-25 07:35:00,79.4,69.2,29.94,ESE,112,4.0,0.0,71,0.00,,---,0.00,VWS V14.01,2013-02-25 11:35:00,
2013-02-25 07:40:00,80.3,69.6,29.94,North,0,2.5,0.0,70,0.00,,---,0.00,VWS V14.01,2013-02-25 11:40:00,
2013-02-25 07:45:00,80.5,69.0,29.95,ENE,68,3.4,0.0,68,0.00,,---,0.00,VWS V14.01,2013-02-25 11:45:00,
2013-02-25 07:50:00,80.8,69.3,29.95,ESE,112,1.3,0.0,68,0.00,,---,0.00,VWS V14.01,2013-02-25 11:50:00,
2013-02-25 07:55:00,81.0,68.6,29.96,SE,135,2.7,0.0,66,0.00,,---,0.00,VWS V14.01,2013-02-25 11:55:00,
2013-02-25 08:00:00,80.6,69.1,29.96,ESE,112,2.7,0.0,68,0.00,,---,0.00,VWS V14.01,2013-02-25 12:00:00,
2013-02-25 08:05:00,81.2,69.2,29.96,NNE,22,2.0,0.0,67,0.00,,---,0.00,VWS V14.01,2013-02-25 12:05:00,
2013-02-25 08:10:00,81.7,69.2,29.96,ENE,68,4.7,0.0,66,0.00,,---,0.00,VWS V14.01,2013-02-25 12:10:00,
2013-02-25 08:15:00,82.1,69.6,29.96,SSW,202,2.7,0.0,66,0.00,,---,0.00,VWS V14.01,2013-02-25 12:15:00,
2013-02-25 08:20:00,82.4,69.5,29.96,East,90,1.8,0.0,65,0.00,,---,0.00,VWS V14.01,2013-02-25 12:20:00,
2013-02-25 08:25:00,82.4,69.9,29.96,WSW,248,2.9,0.0,66,0.00,,---,0.00,VWS V14.01,2013-02-25 12:25:00,
2013-02-25 08:30:00,82.6,70.1,29.96,North,0,3.4,0.0,66,0.00,,---,0.00,VWS V14.01,2013-02-25 12:30:00,
2013-02-25 08:35:00,82.8,70.3,29.96,NNW,338,3.4,0.0,66,0.00,,---,0.00,VWS V14.01,2013-02-25 12:35:00,
2013-02-25 08:40:00,82.8,70.3,29.96,ESE,112,1.8,0.0,66,0.00,,---,0.00,VWS V14.01,2013-02-25 12:40:00,
2013-02-25 08:45:00,82.4,69.9,29.96,ENE,68,2.9,0.0,66,0.00,,---,0.00,VWS V14.01,2013-02-25 12:45:00,
2013-02-25 08:51:00,82.4,69.5,29.97,SE,135,3.6,0.0,65,0.00,,---,0.00,VWS V14.01,2013-02-25 12:51:00,
2013-02-25 08:56:00,83.0,70.0,29.97,South,180,4.7,0.0,65,0.00,,---,0.00,VWS V14.01,2013-02-25 12:56:00,
2013-02-25 09:01:00,83.2,69.8,29.97,East,90,2.0,0.0,64,0.00,,---,0.00,VWS V14.01,2013-02-25 13:01:00,
2013-02-25 09:06:00,82.8,69.8,29.97,ESE,112,3.8,0.0,65,0.00,,---,0.00,VWS V14.01,2013-02-25 13:06:00,
2013-02-25 09:11:00,82.3,68.9,29.97,NNW,338,2.9,0.0,64,0.00,,---,0.00,VWS V14.01,2013-02-25 13:11:00,
2013-02-25 09:16:00,82.3,68.9,29.97,North,0,3.4,0.0,64,0.00,,---,0.00,VWS V14.01,2013-02-25 13:16:00,
2013-02-25 09:21:00,82.8,69.8,29.97,ENE,68,4.7,0.0,65,0.00,,---,0.00,VWS V14.01,2013-02-25 13:21:00,
2013-02-25 09:26:00,82.8,69.8,29.98,East,90,3.8,0.0,65,0.00,,---,0.00,VWS V14.01,2013-02-25 13:26:00,
2013-02-25 09:31:00,82.4,69.0,29.97,South,180,5.4,0.0,64,0.00,,---,0.00,VWS V14.01,2013-02-25 13:31:00,
2013-02-25 09:37:00,82.3,69.8,29.97,SE,135,5.6,0.0,66,0.00,,---,0.00,VWS V14.01,2013-02-25 13:37:00,
2013-02-25 09:41:00,82.1,70.1,29.98,NNE,22,2.7,0.0,67,0.00,,---,0.00,VWS V14.01,2013-02-25 13:41:00,
2013-02-25 09:47:00,82.3,69.8,29.98,ESE,112,2.7,0.0,66,0.00,,---,0.00,VWS V14.01,2013-02-25 13:47:00,
2013-02-25 09:52:00,82.4,69.0,29.98,SE,135,3.4,0.0,64,0.00,,---,0.00,VWS V14.01,2013-02-25 13:52:00,
2013-02-25 09:57:00,82.1,69.2,29.98,West,270,5.8,0.0,65,0.00,,---,0.00,VWS V14.01,2013-02-25 13:57:00,
2013-02-25 10:02:00,81.7,69.2,29.97,NE,45,2.7,0.0,66,0.00,,---,0.00,VWS V14.01,2013-02-25 14:02:00,
2013-02-25 10:07:00,81.9,69.4,29.98,NW,315,4.7,0.0,66,0.00,,---,0.00,VWS V14.01,2013-02-25 14:07:00,
2013-02-25 10:12:00,82.1,69.6,29.98,East,90,2.2,0.0,66,0.00,,---,0.00,VWS V14.01,2013-02-25 14:12:00,
2013-02-25 10:17:00,83.0,70.5,29.98,ESE,112,4.3,0.0,66,0.00,,---,0.00,VWS V14.01,2013-02-25 14:17:00,
2013-02-25 10:22:00,82.8,69.8,29.98,NNE,22,4.7,0.0,65,0.00,,---,0.00,VWS V14.01,2013-02-25 14:22:00,
2013-02-25 10:27:00,82.1,69.2,29.97,South,180,6.3,0.0,65,0.00,,---,0.00,VWS V14.01,2013-02-25 14:27:00,
2013-02-25 10:32:00,81.4,69.0,29.97,South,180,4.7,0.0,66,0.00,,---,0.00,VWS V14.01,2013-02-25 14:32:00,
2013-02-25 10:37:00,81.2,69.2,29.97,SE,135,4.5,0.0,67,0.00,,---,0.00,VWS V14.01,2013-02-25 14:37:00,
2013-02-25 10:42:00,81.7,69.2,29.97,NE,45,3.4,0.0,66,0.00,,---,0.00,VWS V14.01,2013-02-25 14:42:00,
2013-02-25 10:47:00,82.4,69.5,29.97,SE,135,3.4,0.0,65,0.00,,---,0.00,VWS V14.01,2013-02-25 14:47:00,
2013-02-25 10:52:00,82.8,69.8,29.97,East,90,5.4,0.0,65,0.00,,---,0.00,VWS V14.01,2013-02-25 14:52:00,
2013-02-25 10:57:00,82.8,69.8,29.96,ENE,68,2.5,0.0,65,0.00,,---,0.00,VWS V14.01,2013-02-25 14:57:00,
2013-02-25 11:02:00,82.4,69.5,29.96,NE,45,3.6,0.0,65,0.00,,---,0.00,VWS V14.01,2013-02-25 15:02:00,
2013-02-25 11:07:00,82.4,69.0,29.96,East,90,6.5,0.0,64,0.00,,---,0.00,VWS V14.01,2013-02-25 15:07:00,
2013-02-25 11:12:00,82.4,69.0,29.96,SE,135,2.5,0.0,64,0.00,,---,0.00,VWS V14.01,2013-02-25 15:12:00,
2013-02-25 11:17:00,83.0,70.0,29.96,SSE,158,3.8,0.0,65,0.00,,---,0.00,VWS V14.01,2013-02-25 15:17:00,
2013-02-25 11:23:00,83.3,69.9,29.96,NNE,22,2.2,0.0,64,0.00,,---,0.00,VWS V14.01,2013-02-25 15:23:00,
2013-02-25 11:28:00,83.2,69.8,29.95,NE,45,2.5,0.0,64,0.00,,---,0.00,VWS V14.01,2013-02-25 15:28:00,
2013-02-25 11:33:00,83.2,69.8,29.95,NW,315,2.9,0.0,64,0.00,,---,0.00,VWS V14.01,2013-02-25 15:33:00,
2013-02-25 11:38:00,83.2,69.8,29.95,ESE,112,3.8,0.0,64,0.00,,---,0.00,VWS V14.01,2013-02-25 15:38:00,
2013-02-25 11:43:00,83.0,70.0,29.94,NNW,338,4.3,0.0,65,0.00,,---,0.00,VWS V14.01,2013-02-25 15:43:00,
2013-02-25 11:48:00,82.8,69.8,29.94,SSE,158,5.4,0.0,65,0.00,,---,0.00,VWS V14.01,2013-02-25 15:48:00,
2013-02-25 11:53:00,82.1,69.2,29.94,SE,135,2.5,0.0,65,0.00,,---,0.00,VWS V14.01,2013-02-25 15:53:00,
2013-02-25 11:58:00,82.3,69.4,29.94,SE,135,3.8,0.0,65,0.00,,---,0.00,VWS V14.01,2013-02-25 15:58:00,
2013-02-25 12:03:00,82.8,70.3,29.94,SSE,158,4.7,0.0,66,0.00,,---,0.00,VWS V14.01,2013-02-25 16:03:00,
2013-02-25 12:08:00,82.4,69.5,29.94,NNE,22,3.4,0.0,65,0.00,,---,0.00,VWS V14.01,2013-02-25 16:08:00,
2013-02-25 12:13:00,81.7,69.2,29.94,NE,45,2.5,0.0,66,0.00,,---,0.00,VWS V14.01,2013-02-25 16:13:00,
2013-02-25 12:18:00,81.9,69.9,29.93,SSE,158,4.7,0.0,67,0.00,,---,0.00,VWS V14.01,2013-02-25 16:18:00,
2013-02-25 12:23:00,82.4,69.0,29.93,NE,45,3.6,0.0,64,0.00,,---,0.00,VWS V14.01,2013-02-25 16:23:00,
2013-02-25 12:28:00,82.6,70.1,29.93,ENE,68,4.3,0.0,66,0.00,,---,0.00,VWS V14.01,2013-02-25 16:28:00,
2013-02-25 12:34:00,82.4,69.5,29.93,South,180,5.4,0.0,65,0.00,,---,0.00,VWS V14.01,2013-02-25 16:34:00,
2013-02-25 12:38:00,82.1,68.7,29.92,East,90,4.0,0.0,64,0.00,,---,0.00,VWS V14.01,2013-02-25 16:38:00,
2013-02-25 12:43:00,81.7,68.8,29.92,SE,135,4.0,0.0,65,0.00,,---,0.00,VWS V14.01,2013-02-25 16:43:00,
2013-02-25 12:49:00,81.7,68.8,29.92,North,0,4.7,0.0,65,0.00,,---,0.00,VWS V14.01,2013-02-25 16:49:00,
2013-02-25 12:54:00,81.7,68.8,29.92,ESE,112,3.8,0.0,65,0.00,,---,0.00,VWS V14.01,2013-02-25 16:54:00,
2013-02-25 12:59:00,81.7,68.8,29.91,North,0,3.1,0.0,65,0.00,,---,0.00,VWS V14.01,2013-02-25 16:59:00,
2013-02-25 13:04:00,81.9,69.0,29.91,ESE,112,3.4,0.0,65,0.00,,---,0.00,VWS V14.01,2013-02-25 17:04:00,
2013-02-25 13:09:00,81.7,68.3,29.91,North,0,6.5,0.0,64,0.00,,---,0.00,VWS V14.01,2013-02-25 17:09:00,
2013-02-25 13:14:00,81.7,68.8,29.91,SE,135,3.6,0.0,65,0.00,,---,0.00,VWS V14.01,2013-02-25 17:14:00,
2013-02-25 13:19:00,81.7,68.3,29.91,NE,45,5.8,0.0,64,0.00,,---,0.00,VWS V14.01,2013-02-25 17:19:00,
2013-02-25 13:24:00,82.1,68.7,29.91,ENE,68,3.1,0.0,64,0.00,,---,0.00,VWS V14.01,2013-02-25 17:24:00,
2013-02-25 13:29:00,81.5,68.2,29.91,NNW,338,4.3,0.0,64,0.00,,---,0.00,VWS V14.01,2013-02-25 17:29:00,
2013-02-25 13:34:00,81.4,69.0,29.91,SW,225,4.7,0.0,66,0.00,,---,0.00,VWS V14.01,2013-02-25 17:34:00,
2013-02-25 13:39:00,81.2,68.8,29.90,NNE,22,2.5,0.0,66,0.00,,---,0.00,VWS V14.01,2013-02-25 17:39:00,
2013-02-25 13:45:00,81.0,68.6,29.90,ESE,112,3.1,0.0,66,0.00,,---,0.00,VWS V14.01,2013-02-25 17:45:00,
2013-02-25 13:50:00,81.0,68.6,29.90,SSE,158,2.2,0.0,66,0.00,,---,0.00,VWS V14.01,2013-02-25 17:50:00,
2013-02-25 13:55:00,81.4,69.0,29.90,NNW,338,4.3,0.0,66,0.00,,---,0.00,VWS V14.01,2013-02-25 17:55:00,
2013-02-25 14:00:00,81.5,69.1,29.89,SE,135,3.8,0.0,66,0.00,,---,0.00,VWS V14.01,2013-02-25 18:00:00,
2013-02-25 14:05:00,81.7,69.2,29.89,SE,135,5.1,0.0,66,0.00,,---,0.00,VWS V14.01,2013-02-25 18:05:00,
2013-02-25 14:10:00,81.5,69.1,29.89,ENE,68,2.2,0.0,66,0.00,,---,0.00,VWS V14.01,2013-02-25 18:10:00,
2013-02-25 14:15:00,81.4,69.0,29.89,NW,315,1.8,0.0,66,0.00,,---,0.00,VWS V14.01,2013-02-25 18:15:00,
2013-02-25 14:20:00,81.2,69.6,29.89,ENE,68,1.8,0.0,68,0.00,,---,0.00,VWS V14.01,2013-02-25 18:20:00,
2013-02-25 14:25:00,81.2,69.6,29.88,NNE,22,3.4,0.0,68,0.00,,---,0.00,VWS V14.01,2013-02-25 18:25:00,
2013-02-25 14:30:00,81.0,69.4,29.88,South,180,2.5,0.0,68,0.00,,---,0.00,VWS V14.01,2013-02-25 18:30:00,
2013-02-25 14:35:00,81.2,69.6,29.88,NE,45,2.5,0.0,68,0.00,,---,0.00,VWS V14.01,2013-02-25 18:35:00,
2013-02-25 14:40:00,81.4,69.8,29.88,SSW,202,4.7,0.0,68,0.00,,---,0.00,VWS V14.01,2013-02-25 18:40:00,
2013-02-25 14:45:00,80.8,69.3,29.88,NW,315,1.8,0.0,68,0.00,,---,0.00,VWS V14.01,2013-02-25 18:45:00,
2013-02-25 14:50:00,80.6,69.1,29.89,SSE,158,1.8,0.0,68,0.00,,---,0.00,VWS V14.01,2013-02-25 18:50:00,
2013-02-25 14:55:00,80.1,69.0,29.88,ESE,112,4.0,0.0,69,0.00,,---,0.00,VWS V14.01,2013-02-25 18:55:00,
2013-02-25 15:00:00,79.9,69.2,29.88,ESE,112,3.8,0.0,70,0.00,,---,0.00,VWS V14.01,2013-02-25 19:00:00,
2013-02-25 15:05:00,79.7,69.1,29.88,SSW,202,3.4,0.0,70,0.00,,---,0.00,VWS V14.01,2013-02-25 19:05:00,
2013-02-25 15:10:00,79.6,69.0,29.88,North,0,5.1,0.0,70,0.00,,---,0.00,VWS V14.01,2013-02-25 19:10:00,
2013-02-25 15:15:00,79.6,69.0,29.88,SE,135,4.3,0.0,70,0.00,,---,0.00,VWS V14.01,2013-02-25 19:15:00,
2013-02-25 15:20:00,79.6,69.4,29.88,ESE,112,4.3,0.0,71,0.00,,---,0.00,VWS V14.01,2013-02-25 19:20:00,
2013-02-25 15:25:00,79.6,69.4,29.88,North,0,4.7,0.0,71,0.00,,---,0.00,VWS V14.01,2013-02-25 19:25:00,
2013-02-25 15:30:00,79.2,69.0,29.88,NE,45,3.6,0.0,71,0.00,,---,0.00,VWS V14.01,2013-02-25 19:30:00,
2013-02-25 15:35:00,79.2,68.6,29.88,NE,45,4.0,0.0,70,0.00,,---,0.00,VWS V14.01,2013-02-25 19:35:00,
2013-02-25 15:41:00,79.0,68.4,29.88,SSW,202,3.4,0.0,70,0.00,,---,0.00,VWS V14.01,2013-02-25 19:41:00,
2013-02-25 15:46:00,78.8,68.6,29.88,NNE,22,3.4,0.0,71,0.00,,---,0.00,VWS V14.01,2013-02-25 19:46:00,
2013-02-25 15:51:00,78.8,68.6,29.88,SSE,158,4.7,0.0,71,0.00,,---,0.00,VWS V14.01,2013-02-25 19:51:00,
2013-02-25 15:56:00,78.7,68.5,29.88,ENE,68,4.7,0.0,71,0.00,,---,0.00,VWS V14.01,2013-02-25 19:56:00,
2013-02-25 16:01:00,78.5,68.7,29.88,SE,135,3.6,0.0,72,0.00,,---,0.00,VWS V14.01,2013-02-25 20:01:00,
2013-02-25 16:06:00,78.3,68.9,29.88,East,90,4.3,0.0,73,0.00,,---,0.00,VWS V14.01,2013-02-25 20:06:00,
2013-02-25 16:11:00,78.1,68.8,29.88,South,180,4.7,0.0,73,0.00,,---,0.00,VWS V14.01,2013-02-25 20:11:00,
2013-02-25 16:16:00,78.1,68.8,29.88,North,0,2.2,0.0,73,0.00,,---,0.00,VWS V14.01,2013-02-25 20:16:00,
2013-02-25 16:21:00,78.1,69.1,29.88,North,0,4.7,0.0,74,0.00,,---,0.00,VWS V14.01,2013-02-25 20:21:00,
2013-02-25 16:26:00,78.1,69.1,29.88,ENE,68,3.1,0.0,74,0.00,,---,0.00,VWS V14.01,2013-02-25 20:26:00,
2013-02-25 16:31:00,78.1,69.1,29.88,NE,45,3.4,0.0,74,0.00,,---,0.00,VWS V14.01,2013-02-25 20:31:00,
2013-02-25 16:36:00,77.9,68.6,29.88,ENE,68,2.9,0.0,73,0.00,,---,0.00,VWS V14.01,2013-02-25 20:36:00,
2013-02-25 16:41:00,77.8,68.9,29.89,NE,45,6.9,0.0,74,0.00,,---,0.00,VWS V14.01,2013-02-25 20:41:00,
2013-02-25 16:46:00,77.6,69.1,29.89,ESE,112,5.4,0.0,75,0.00,,---,0.00,VWS V14.01,2013-02-25 20:46:00,
2013-02-25 16:51:00,77.4,68.9,29.89,WSW,248,3.4,0.0,75,0.00,,---,0.00,VWS V14.01,2013-02-25 20:51:00,
2013-02-25 16:56:00,77.4,68.9,29.89,SE,135,4.5,0.0,75,0.00,,---,0.00,VWS V14.01,2013-02-25 20:56:00,
2013-02-25 17:01:00,77.4,68.9,29.89,NE,45,3.4,0.0,75,0.00,,---,0.00,VWS V14.01,2013-02-25 21:01:00,
2013-02-25 17:06:00,77.4,68.9,29.89,NE,45,3.6,0.0,75,0.00,,---,0.00,VWS V14.01,2013-02-25 21:06:00,
2013-02-25 17:11:00,77.4,68.9,29.89,NW,315,4.3,0.0,75,0.00,,---,0.00,VWS V14.01,2013-02-25 21:11:00,
2013-02-25 17:16:00,77.0,68.5,29.89,NNE,22,3.8,0.0,75,0.00,,---,0.00,VWS V14.01,2013-02-25 21:16:00,
2013-02-25 17:22:00,76.7,68.2,29.89,SSE,158,4.7,0.0,75,0.00,,---,0.00,VWS V14.01,2013-02-25 21:22:00,
2013-02-25 17:27:00,76.7,68.2,29.89,NNW,338,4.7,0.0,75,0.00,,---,0.00,VWS V14.01,2013-02-25 21:27:00,
2013-02-25 17:32:00,76.5,68.0,29.89,NE,45,1.1,0.0,75,0.00,,---,0.00,VWS V14.01,2013-02-25 21:32:00,
2013-02-25 17:37:00,76.5,68.4,29.90,SSE,158,5.4,0.0,76,0.00,,---,0.00,VWS V14.01,2013-02-25 21:37:00,
2013-02-25 17:42:00,76.3,68.2,29.89,SSE,158,5.1,0.0,76,0.00,,---,0.00,VWS V14.01,2013-02-25 21:42:00,
2013-02-25 17:47:00,76.3,67.8,29.89,ENE,68,3.4,0.0,75,0.00,,---,0.00,VWS V14.01,2013-02-25 21:47:00,
2013-02-25 17:52:00,76.1,67.6,29.89,East,90,4.7,0.0,75,0.00,,---,0.00,VWS V14.01,2013-02-25 21:52:00,
2013-02-25 17:57:00,76.1,68.0,29.90,SE,135,4.0,0.0,76,0.00,,---,0.00,VWS V14.01,2013-02-25 21:57:00,
2013-02-25 18:02:00,76.1,68.0,29.89,North,0,4.0,0.0,76,0.00,,---,0.00,VWS V14.01,2013-02-25 22:02:00,
2013-02-25 18:07:00,76.0,67.9,29.90,SSE,158,4.0,0.0,76,0.00,,---,0.00,VWS V14.01,2013-02-25 22:07:00,
2013-02-25 18:12:00,76.0,67.9,29.90,NNE,22,3.4,0.0,76,0.00,,---,0.00,VWS V14.01,2013-02-25 22:12:00,
2013-02-25 18:17:00,76.0,67.9,29.90,NE,45,2.5,0.0,76,0.00,,---,0.00,VWS V14.01,2013-02-25 22:17:00,
2013-02-25 18:23:00,76.0,67.9,29.90,SSE,158,4.0,0.0,76,0.00,,---,0.00,VWS V14.01,2013-02-25 22:23:00,
2013-02-25 18:28:00,76.0,67.9,29.90,SE,135,3.4,0.0,76,0.00,,---,0.00,VWS V14.01,2013-02-25 22:28:00,
2013-02-25 18:33:00,76.0,68.3,29.90,NNW,338,5.1,0.0,77,0.00,,---,0.00,VWS V14.01,2013-02-25 22:33:00,
2013-02-25 18:38:00,75.8,68.1,29.90,ESE,112,5.4,0.0,77,0.00,,---,0.00,VWS V14.01,2013-02-25 22:38:00,
2013-02-25 18:43:00,75.6,68.3,29.90,NE,45,4.5,0.0,78,0.00,,---,0.00,VWS V14.01,2013-02-25 22:43:00,
2013-02-25 18:48:00,75.4,68.1,29.90,SSW,202,4.9,0.0,78,0.00,,---,0.00,VWS V14.01,2013-02-25 22:48:00,
2013-02-25 18:53:00,75.4,67.7,29.90,SE,135,2.7,0.0,77,0.00,,---,0.00,VWS V14.01,2013-02-25 22:53:00,
2013-02-25 18:58:00,75.4,68.1,29.91,SSE,158,3.4,0.0,78,0.00,,---,0.00,VWS V14.01,2013-02-25 22:58:00,
2013-02-25 19:03:00,75.4,68.1,29.90,SE,135,2.5,0.0,78,0.00,,---,0.00,VWS V14.01,2013-02-25 23:03:00,
2013-02-25 19:08:00,75.2,67.9,29.90,SW,225,4.3,0.0,78,0.00,,---,0.00,VWS V14.01,2013-02-25 23:08:00,
2013-02-25 19:13:00,75.2,68.2,29.90,SE,135,3.8,0.0,79,0.00,,---,0.00,VWS V14.01,2013-02-25 23:13:00,
2013-02-25 19:18:00,75.2,68.2,29.90,SE,135,2.5,0.0,79,0.00,,---,0.00,VWS V14.01,2013-02-25 23:18:00,
2013-02-25 19:23:00,75.2,68.2,29.90,SE,135,4.5,0.0,79,0.00,,---,0.00,VWS V14.01,2013-02-25 23:23:00,
2013-02-25 19:28:00,75.2,68.2,29.91,ENE,68,4.0,0.0,79,0.00,,---,0.00,VWS V14.01,2013-02-25 23:28:00,
2013-02-25 19:33:00,75.4,68.4,29.91,SSW,202,5.4,0.0,79,0.00,,---,0.00,VWS V14.01,2013-02-25 23:33:00,
2013-02-25 19:39:00,75.6,68.6,29.91,ESE,112,3.6,0.0,79,0.00,,---,0.00,VWS V14.01,2013-02-25 23:39:00,
2013-02-25 19:44:00,75.6,68.6,29.91,NE,45,2.5,0.0,79,0.00,,---,0.00,VWS V14.01,2013-02-25 23:44:00,
2013-02-25 19:49:00,75.4,68.4,29.91,ESE,112,4.7,0.0,79,0.00,,---,0.00,VWS V14.01,2013-02-25 23:49:00,
2013-02-25 19:54:00,75.2,68.2,29.91,SE,135,4.7,0.0,79,0.00,,---,0.00,VWS V14.01,2013-02-25 23:54:00,
2013-02-25 19:59:00,75.2,68.6,29.91,NE,45,4.7,0.0,80,0.00,,---,0.00,VWS V14.01,2013-02-25 23:59:00,
2013-02-25 20:04:00,75.2,68.6,29.92,South,180,5.4,0.0,80,0.00,,---,0.00,VWS V14.01,2013-02-26 00:04:00,
2013-02-25 20:09:00,75.2,68.2,29.92,East,90,4.7,0.0,79,0.00,,---,0.00,VWS V14.01,2013-02-26 00:09:00,
2013-02-25 20:14:00,75.2,67.9,29.92,SW,225,3.4,0.0,78,0.00,,---,0.00,VWS V14.01,2013-02-26 00:14:00,
2013-02-25 20:19:00,75.2,67.9,29.92,SSE,158,3.6,0.0,78,0.00,,---,0.00,VWS V14.01,2013-02-26 00:19:00,
2013-02-25 20:25:00,75.2,67.9,29.92,ENE,68,3.6,0.0,78,0.00,,---,0.00,VWS V14.01,2013-02-26 00:25:00,
2013-02-25 20:30:00,75.2,67.9,29.92,ENE,68,1.3,0.0,78,0.00,,---,0.00,VWS V14.01,2013-02-26 00:30:00,
2013-02-25 20:35:00,75.1,67.8,29.93,SE,135,2.5,0.0,78,0.00,,---,0.00,VWS V14.01,2013-02-26 00:35:00,
2013-02-25 20:40:00,75.1,67.8,29.93,ENE,68,4.0,0.0,78,0.00,,---,0.00,VWS V14.01,2013-02-26 00:40:00,
2013-02-25 20:45:00,75.2,67.9,29.93,SSE,158,4.7,0.0,78,0.00,,---,0.00,VWS V14.01,2013-02-26 00:45:00,
2013-02-25 20:50:00,75.2,67.5,29.93,SSW,202,2.2,0.0,77,0.00,,---,0.00,VWS V14.01,2013-02-26 00:50:00,
2013-02-25 20:55:00,75.2,67.9,29.93,North,0,5.4,0.0,78,0.00,,---,0.00,VWS V14.01,2013-02-26 00:55:00,
2013-02-25 21:00:00,75.2,67.5,29.93,SE,135,4.7,0.0,77,0.00,,---,0.00,VWS V14.01,2013-02-26 01:00:00,
2013-02-25 21:05:00,75.2,67.9,29.94,SE,135,3.6,0.0,78,0.00,,---,0.00,VWS V14.01,2013-02-26 01:05:00,
2013-02-25 21:10:00,75.2,67.9,29.93,SE,135,5.4,0.0,78,0.00,,---,0.00,VWS V14.01,2013-02-26 01:10:00,
2013-02-25 21:15:00,75.1,67.8,29.94,ENE,68,3.1,0.0,78,0.00,,---,0.00,VWS V14.01,2013-02-26 01:15:00,
2013-02-25 21:20:00,74.9,67.6,29.94,ESE,112,5.4,0.0,78,0.00,,---,0.00,VWS V14.01,2013-02-26 01:20:00,
2013-02-25 21:25:00,74.9,67.6,29.94,SE,135,4.5,0.0,78,0.00,,---,0.00,VWS V14.01,2013-02-26 01:25:00,
2013-02-25 21:30:00,74.9,67.2,29.94,ESE,112,5.4,0.0,77,0.00,,---,0.00,VWS V14.01,2013-02-26 01:30:00,
2013-02-25 21:35:00,74.9,67.6,29.94,ENE,68,4.7,0.0,78,0.00,,---,0.00,VWS V14.01,2013-02-26 01:35:00,
2013-02-25 21:40:00,74.9,67.6,29.94,SW,225,2.2,0.0,78,0.00,,---,0.00,VWS V14.01,2013-02-26 01:40:00,
2013-02-25 21:45:00,74.9,67.6,29.94,NE,45,2.7,0.0,78,0.00,,---,0.00,VWS V14.01,2013-02-26 01:45:00,
2013-02-25 21:51:00,74.9,67.6,29.94,SW,225,2.0,0.0,78,0.00,,---,0.00,VWS V14.01,2013-02-26 01:51:00,
2013-02-25 21:56:00,74.7,67.0,29.94,SE,135,3.6,0.0,77,0.00,,---,0.00,VWS V14.01,2013-02-26 01:56:00,
2013-02-25 22:01:00,74.9,67.6,29.94,SSE,158,3.4,0.0,78,0.00,,---,0.00,VWS V14.01,2013-02-26 02:01:00,
2013-02-25 22:06:00,75.1,67.8,29.94,NNE,22,3.4,0.0,78,0.00,,---,0.00,VWS V14.01,2013-02-26 02:06:00,
2013-02-25 22:11:00,75.1,67.8,29.94,SE,135,4.0,0.0,78,0.00,,---,0.00,VWS V14.01,2013-02-26 02:11:00,
2013-02-25 22:16:00,75.1,67.8,29.94,SSE,158,3.4,0.0,78,0.00,,---,0.00,VWS V14.01,2013-02-26 02:16:00,
2013-02-25 22:21:00,75.1,67.8,29.94,South,180,2.9,0.0,78,0.00,,---,0.00,VWS V14.01,2013-02-26 02:21:00,
2013-02-25 22:26:00,74.9,67.6,29.94,South,180,4.3,0.0,78,0.00,,---,0.00,VWS V14.01,2013-02-26 02:26:00,
2013-02-25 22:31:00,74.9,67.6,29.94,South,180,5.4,0.0,78,0.00,,---,0.00,VWS V14.01,2013-02-26 02:31:00,
2013-02-25 22:36:00,74.9,67.9,29.94,NW,315,4.9,0.0,79,0.00,,---,0.00,VWS V14.01,2013-02-26 02:36:00,
2013-02-25 22:41:00,74.7,67.0,29.94,ESE,112,5.6,0.0,77,0.00,,---,0.00,VWS V14.01,2013-02-26 02:41:00,
2013-02-25 22:46:00,74.7,67.4,29.94,SW,225,4.0,0.0,78,0.00,,---,0.00,VWS V14.01,2013-02-26 02:46:00,
2013-02-25 22:51:00,74.7,67.4,29.94,NE,45,5.1,0.0,78,0.00,,---,0.00,VWS V14.01,2013-02-26 02:51:00,
2013-02-25 22:56:00,74.7,67.4,29.94,North,0,6.7,0.0,78,0.00,,---,0.00,VWS V14.01,2013-02-26 02:56:00,
2013-02-25 23:01:00,74.7,67.4,29.94,SE,135,4.0,0.0,78,0.00,,---,0.00,VWS V14.01,2013-02-26 03:01:00,
2013-02-25 23:06:00,74.5,67.2,29.94,East,90,2.5,0.0,78,0.00,,---,0.00,VWS V14.01,2013-02-26 03:06:00,
2013-02-25 23:11:00,74.7,67.4,29.94,East,90,3.4,0.0,78,0.00,,---,0.00,VWS V14.01,2013-02-26 03:11:00,
2013-02-25 23:16:00,74.7,67.4,29.94,ENE,68,1.3,0.0,78,0.00,,---,0.00,VWS V14.01,2013-02-26 03:16:00,
2013-02-25 23:22:00,74.9,67.6,29.94,SSE,158,1.8,0.0,78,0.00,,---,0.00,VWS V14.01,2013-02-26 03:22:00,
2013-02-25 23:27:00,74.9,67.6,29.94,NNE,22,3.6,0.0,78,0.00,,---,0.00,VWS V14.01,2013-02-26 03:27:00,
2013-02-25 23:32:00,74.9,67.6,29.94,ESE,112,3.4,0.0,78,0.00,,---,0.00,VWS V14.01,2013-02-26 03:32:00,
2013-02-25 23:37:00,74.7,67.4,29.94,North,0,3.4,0.0,78,0.00,,---,0.00,VWS V14.01,2013-02-26 03:37:00,
2013-02-25 23:42:00,74.7,67.4,29.94,ENE,68,6.3,0.0,78,0.00,,---,0.00,VWS V14.01,2013-02-26 03:42:00,
2013-02-25 23:47:00,74.7,67.4,29.94,SE,135,5.6,0.0,78,0.00,,---,0.00,VWS V14.01,2013-02-26 03:47:00,
2013-02-25 23:52:00,74.7,67.4,29.94,ESE,112,4.0,0.0,78,0.00,,---,0.00,VWS V14.01,2013-02-26 03:52:00,
2013-02-25 23:57:00,74.5,67.2,29.94,ESE,112,5.4,0.0,78,0.00,,---,0.00,VWS V14.01,2013-02-26 03:57:00,